Regional Weather Roundup
Issued by NWS Wakefield, VA

Home | Current Version | Previous Version | Graphics & Text | Print | Product List | Glossary On
Versions: 1 2 3 4 5 6 7 8 9 10 11 12 13 14 15 16 17 18 19 20 21 22 23 24 25 26 27
000
ASUS41 KAKQ 201215
RWRAKQ

REGIONAL WEATHER ROUNDUP
NATIONAL WEATHER SERVICE WAKEFIELD VA
700 AM EST MON FEB 20 2017

Note: "fair" indicates few or no clouds below 12,000 feet with no
significant weather and/or obstructions to visibility. * = Denotes
station may not report precipitation (e.g., rain,snow,etc.),
thunder or fog.

VAZ042-051-052>054-056-201300-
NORTHERN VIRGINIA

CITY           SKY/WX    TMP DP  RH WIND       PRES   REMARKS
WASH NATIONAL  PTCLDY    45  42  89 S5        30.19R
DULLES         PTCLDY    48  40  73 NW8       30.18R
FORT BELVOIR   CLEAR     38  36  92 CALM      30.19R
QUANTICO       CLEAR     40  39  97 NW7       30.20R
FREDERICKSBRG* CLEAR     38  37  95 CALM      30.18R
STAFFORD*      CLEAR     34  34 100 CALM      30.23R
WARRENTON      CLEAR     33  30  90 CALM      30.18R
CULPEPER*      CLEAR     33  32  96 CALM      30.19R
MANASSAS*      CLEAR     36  33  89 CALM      30.19R
LEESBURG*      CLEAR     43  41  93 MISG      30.20R
WINCHESTER     CLEAR     43  37  81 CALM      30.19R
FRONT ROYAL*   SUNNY     43  36  75 S7        30.18R
LURAY*         MOSUNNY   36  36 100 CALM      30.21R
$$

VAZ048-049-060>072-079>083-201300-
CENTRAL AND SOUTH CENTRAL VIRGINIA

CITY           SKY/WX    TMP DP  RH WIND       PRES   REMARKS
RICHMOND       PTCLDY    48  40  73 N5        30.17R
CHESTERFIELD*  FAIR      36  18  48 CALM      30.19R
PETERSBURG*    CLEAR     33  31  94 CALM      30.18R
HANOVER        CLEAR     37  33  85 CALM      30.19R
TAPPAHANNOCK*  CLEAR     41  39  93 CALM      30.19R
QUINTON*       FAIR      52  42  69 MISG      30.18R
CHARLOTTSVILLE CLEAR     52  35  52 SW5       30.17R
GORDONSVILLE*  SUNNY     33  32  97 MISG      30.17R
ORANGE*        CLEAR     34  32  93 CALM      30.19R
LOUISA*        CLEAR     37  36  93 CALM      30.16R
BUMPASS*       FAIR      37  35  94 CALM      30.17R
FARMVILLE*     CLEAR     34  34 100 CALM      30.17R
CREWE*         FAIR      37  37 100 CALM      30.17R
FORT PICKETT*  FAIR      39  36  87 N3        30.17R
CHASE CITY*    FAIR      39  38  95 MISG      30.17R
CLARKSVILLE*   FAIR      37  37 100 CALM      30.18R
SOUTH HILL*    CLEAR     40  38  94 CALM      30.22R
LAWRENCEVILLE* FAIR      41  39  93 CALM      30.17R
EMPORIA*       CLEAR     34  34 100 CALM      30.19R FOG
$$

VAZ088>098-201300-
SOUTHEAST VIRGINIA

CITY           SKY/WX    TMP DP  RH WIND       PRES   REMARKS
NORFOLK        CLEAR     50  42  74 N7        30.15R
VIRGINIA BEACH PTCLDY    48  41  76 N7        30.15R
NORFOLK NAVAL  PTCLDY    53  42  66 N12       30.17R
WEST POINT*    CLEAR     42  39  90 CALM      30.19S
SALUDA*        FAIR      50  44  79 NW5       30.17R
NEWPORT NEWS   CLEAR     54  41  61 N9        30.16R
LANGLEY AFB    CLEAR     54  42  65 N13       30.15R
FORT EUSTIS    CLEAR     54  41  62 N7        30.14R
WILLIAMSBURG*  CLEAR     54  43  66 CALM      30.17R
HR EXEC AP*    FAIR      36  30  80 NW5       30.15R
FRANKLIN*      CLEAR     38  35  92 CALM      30.18R
US460-WAKEFLD  CLEAR     52  40  63 N5        30.17R
$$

VAZ020-022-025-037-045-201300-
WEST CENTRAL AND SOUTHWEST VIRGINIA

CITY           SKY/WX    TMP DP  RH WIND       PRES   REMARKS
STAUNTON*      PTCLDY    28  27  93 CALM      30.22S
WAYNESBORO*    SUNNY     36  34  94 SW3       30.20R
HOT SPRINGS VA CLEAR     43  30  61 NW10      30.20S
LYNCHBURG      CLEAR     36  33  89 CALM      30.18R
DANVILLE       CLEAR     36  36 100 CALM      30.18R
SOUTH BOSTON*  FAIR      36  35  94 CALM      30.19R
MARTINSVILLE   PTCLDY    32  32  98 CALM      30.21S
ROANOKE        CLEAR     41  37  86 N7        30.22S
BLACKSBURG       N/A     34  34  99 CALM      30.24S FOG
DUBLIN*        CLOUDY    37  36  96 W5        30.23R FOG
MARION*        FOG       38  37  96 CALM      30.26R VSB<1/4
HILLSVILLE*    CLOUDY    44  42  93 W3        30.21R
RICHLANDS*     FAIR      42  42  99 N5        30.24R
WISE*          CLEAR     43  43 100 CALM      30.23R
ABINGDON*      CLOUDY    39  39  99 E5        30.22R
$$

MDZ021>025-VAZ099-100-201300-
SOUTHERN MARYLAND AND THE DELMARVA PENINSULA

CITY           SKY/WX    TMP DP  RH WIND       PRES   REMARKS
PATUXENT RIVER CLEAR     45  41  86 NW7       30.17R
BAY BRIDGE APT CLEAR     45  39  81 CALM      30.17R HAZE
LEONARDTOWN    CLEAR     45  41  87 W5        30.19R
DOVER          CLEAR     42  40  95 W3        30.15R
GEORGETOWN     CLEAR     40  37  89 CALM      30.16R FOG
EASTON         CLEAR     43  39  87 CALM      30.20R
CAMBRIDGE      CLEAR     39  37  93 CALM      30.17R
SALISBURY      CLEAR     46  41  82 NW5       30.16R
OCEAN CITY     CLEAR     41  37  86 NW5       30.15R
WALLOPS ISLAND CLEAR     48  43  82 NW7       30.16R
ACCOMACK*      CLEAR     49  42  78 NW8       30.15R
$$

NCZ012>017-030>032-201300-
NORTH CENTRAL AND EASTERN NORTH CAROLINA

CITY           SKY/WX    TMP DP  RH WIND       PRES   REMARKS
ROANOKE RAPIDS FAIR      41  39  93 CALM      30.17R
RALEIGH        PTCLDY    43  39  86 CALM      30.18R
ELIZABETH CITY CLEAR     46  41  82 NW6       30.16R
AHOSKIE*         N/A     39  37  94 CALM      30.17R
EDENTON*       CLEAR     46  42  86 N3        30.17R
CURRITUCK*     CLEAR     47  41  79 NW3       30.16R
KILL DEVIL HLS NOT AVBL
MANTEO         CLEAR     52  44  74 N8        30.15R
CAPE HATTERAS  CLEAR     53  47  79 N3        30.14R
TARBORO*       NOT AVBL
GOLDSBORO      CLEAR     46  45  94 N3        30.15R
WASHINGTON     CLEAR     44  41  91 CALM      30.16S
GREENVILLE     CLEAR     41  36  81 CALM      30.18R FOG
NEW BERN       CLEAR     49  43  80 N3        30.16R
WILMINGTON     CLEAR     48  44  86 N3        30.15R
$$

VAZ048-201300-
ELSEWHERE

CITY           SKY/WX    TMP DP  RH WIND       PRES   REMARKS
HARRISBURG PA  CLEAR     45  30  55 N7        30.18R
BALTIMORE      PTCLDY    39  37  92 SW3       30.17R
ANNAPOLIS      CLEAR     41  40  96 NW3       30.17R FOG
ANDREWS AFB    CLEAR     40  37  87 W3        30.17R
PHILADELPHIA   CLEAR     43  32  65 N6        30.17R
HENDERSON NC   CLEAR     42  37  82 CALM      30.18R
GREENSBORO     MOCLDY    43  39  86 CALM      30.16S
ROCKY MOUNT    CLEAR     43  41  93 CALM      30.18R
$$

VAZ100-201300-
MARINE

STATION/POSITION TIME  TEMP    WIND        PRES    WAVE   SWELL
                       AIR SEA DIR/SP/G            HT/PER HT/PER
                 (UTC) (F)     (DEG/KT/KT) (MB)    (FT/S) (FT/S)
CAPE MAY NJ      1136   44 41  360/  3/  6 1020.3R
LEWES DE         1136   45 42  280/  5/  5 1020.7R
OCEAN-CITY-INLET 1136   47 42   10/  3/  4 1021.2R
WACHAPREAGUE VA  1136   50 48  300/  3/  6 1020.8R
THOMAS POINT MD  1200   50 41  300/  6/  7   N/A
GOOSES REEF MD   1150   47     280/  4/  4 1022.3R
COVE POINT MD    1136   52     320/  8/  9 1021.9R
SOLOMONS ISLAND  1136   48 42  330/  2/  2   N/A
BISHOPS HEAD MD  1136   45 45  300/  6/  7 1021.4R
PINEY POINT MD   1148          340/  7/  8   N/A
POTOMAC MD       1150   45     330/  4/  6 1020.7R
CAMBRIDGE MD     1136   48 40  270/  3/  5 1020.5R
LEWISETTA VA     1136   53 45  320/  8/ 10 1021.2R
RAPPAHANNOCK LGT 1148          320/ 18/ 19 1021.6R
YORK RVR RNG VA  1136   52     350/ 18/ 19 1020.1R
YORKTOWN VA      1136   50 45  320/ 10/ 12 1020.8R
JAMESTOWN VA     1150   52     290/  4/  6   N/A
DOMINION TERM VA 1136   55     360/ 11/ 13 1020.8R
KIPTOPEKE VA     1148      45   10/ 12/ 16   N/A
CHES BAY BRIDGE  1148   51 46   20/  5/  8 1021.0R
CAPE HENRY VA    1148   51     320/  7/  9   N/A
WILLOUBY STN VA  1148   54     350/ 16/ 18 1021.6R
S CRANEY ISL VA  1136   52     340/  4/  6 1020.6R
CAPE HENRY BUOY  1142      47                N/A     1/ 7
OFFSHORE WE BUOY 1151      47                N/A     2/ 7
64NM E OF VA BCH 1150   52 51  340/ 14/ 17 1019.5R   2/ 3   2/ 8
DUCK PIER NC     1148   53 48  340/ 13/ 15 1020.0R
44100 DUCK FRF   1135      48                N/A     1/ 8
44056 DUCK FRF   1130      48                N/A     1/ 6
OREGON INLET NC  1148          340/  6/  8   N/A
HATTERAS NC      1148   54 57  350/  9/ 11 1020.0R
DIAMOND SHLS NC  1150   62 65  360/ 14/ 16 1019.9R   1/ 6   2/ 6
CAPE LOOKOUT NC  1100   54     350/ 13/ 15 1019.3R
$$




USA.gov is the U.S. government's official web portal to all federal, state and local government web resources and services.